Location: �mondeville
(49.4591°N, 1.3431°W)
Time: 21:11:32
(UTC+00:00)

Cosmos 1953 - Pass Details

Date: 22 October 2019
Orbit: 538 x 559 km, 82.5° (Epoch: 17 November)

Event Time Altitude Azimuth Distance (km) Brightness Sun altitude
Rises 04:36:27 0° 345° (NNW) 2,740 5.8 -20.2°
Reaches altitude 10° 04:38:41 10° 340° (NNW) 1,837 4.8 -19.8°
Enters shadow 04:38:48 11° 339° (NNW) 1,796 4.8 -19.8°
Exits shadow 04:45:07 19° 199° (SSW) 1,320 4.0 -18.8°
Drops below altitude 10° 04:46:24 10° 192° (SSW) 1,810 4.8 -18.6°
Sets 04:48:35 0° 187° (S) 2,694 5.7 -18.2°
